Pristina, Kosovo

12:06 AM CEST on August 05, 2015 (GMT +0200)
Velania | | Change Station
CLOSE
Current Station
Personal Weather Station
Location: Prishtina, KOSOVO
Elevation: 2192 ft
Nearby Weather Stations

Elev 2192 ft 42.66 °N, 21.18 °E | Updated 3 seconds ago

Clear
Clear
66.4 °F
Feels Like 66.4 °F
N
2.2
Wind Variable Wind from North
Gusts 2.2 mph

Today
High -- | Low -- °F
--% Chance of Precip.
Yesterday
High -- | Low -- °F
Precip. -- in
5:30 AM 7:51 PM
Waning Gibbous, 74% visible
Pressure 29.95 in
Visibility -9999.0 miles
Clouds
Dew Point 64 °F
Humidity 91%
Rainfall 0.00 in
Snow Depth Not available.
UV 0.0 out of 12
Pollen Not available.
Air Quality Not available.
Flu Activity Not available.
METAR LWSK 042200Z 00000KT CAVOK 21/16 Q1014 NOSIG

More Conditions Fewer Conditions

Pressure 29.95 in
Visibility -9999.0 miles
Clouds
Dew Point 64 °F
Humidity 91%
Rainfall 0.00 in
Snow Depth Not available.
UV 0.0 out of 12
Pollen Not available.
Air Quality Not available.
Flu Activity Not available.
METAR LWSK 042200Z 00000KT CAVOK 21/16 Q1014 NOSIG

More Conditions Fewer Conditions

10-Day Weather Forecast

×

Almanac

Astronomy

Aug. 05, 2015 Rise Set
Actual Time
Civil Twilight
Nautical Twilight
Astronomical Twilight
Moon
Length of Visible Light
Length of Day
Tomorrow will be .
, % of the Moon is Illuminated

Today's Extremes

Country Highs Country Lows

Community

WunderPhotos

Upload Photos

1,844,001 photos uploaded!

WunderBlogs® & News

Nearby

Air Quality

  Air Quality AQ Index Pollutant
Not available.

Snow Depth

Station Depth Elevation

Earthquake Activity

City Distance Mag. Time & Date
Minimum magnitude displayed is 2.5.

Coastal Water Temperatures

Place Temperature

Stations

Nearby Weather Stations

Station Location Temp. Windchill Dew Point Humidity Wind Precip. Elev Updated Type